Weather History for Troy, MI

Change the Weather History Date:

Friday, October 7, 2011

  Actual Average (KDET) Record (KDET)
Temperature  
Mean Temperature 64 °F -  
Max Temperature 78 °F 62 °F 92 °F (1963)
Min Temperature 51 °F 46 °F 31 °F (1952)
Growing Degree Days 14 (Base 50)    
Moisture  
Dew Point 50 °F    
Average Humidity 67    
Maximum Humidity 94    
Minimum Humidity 32    
Precipitation  
Precipitation 0.00 in - - ()
Sea Level Pressure  
Sea Level Pressure 30.39 in    
Wind  
Wind Speed 1 mph (South)    
Max Wind Speed 9 mph    
Max Gust Speed -    
Visibility 8 miles    
Events      
Averages and records for this station are not official NWS values.
T = Trace of Precipitation, MM = Missing Value Source: NWS Daily Summary

Daily Weather History Graph

Daily Weather History Graph

Search for Another Location

Airport:

Trip Planner

Search our weather history database for the weather conditions in past years. The results will help you decide how hot, cold, wet, or windy it might be!

Date:

Astronomy

Oct. 07, 2011 Rise Set
Actual Time 7:36 AM EDT 7:04 PM EDT
Civil Twilight 7:08 AM EDT 7:32 PM EDT
Nautical Twilight 6:35 AM EDT 8:04 PM EDT
Astronomical Twilight 6:02 AM EDT 8:37 PM EDT
Moon 4:50 PM EDT (10/7) 3:18 AM EDT (10/7)
Length of Visible Light 12h 24m
Length of Day
11h 27m
Waxing Gibbous, 83% of the Moon is Illuminated
Oct 7
Waxing Gibbous
Oct 11
Full
Oct 19
Last Quarter
Oct 26
New
Nov 2
First Quarter

Hourly Weather History & Observations

Time (EDT) Temp. Dew Point Humidity Pressure Visibility Wind Dir Wind Speed Gust Speed Precip Events Conditions
12:16 AM 57.2 °F 53.6 °F 88% 30.36 in 10.0 mi Calm Calm - N/A   Clear
12:37 AM 57.2 °F 53.6 °F 88% 30.36 in 7.0 mi Calm Calm - N/A   Clear
12:56 AM 55.4 °F 51.8 °F 88% 30.35 in 7.0 mi Calm Calm - N/A   Clear
1:17 AM 55.4 °F 51.8 °F 88% 30.35 in 7.0 mi Calm Calm - N/A   Clear
1:36 AM 55.4 °F 51.8 °F 88% 30.36 in 7.0 mi Calm Calm - N/A   Clear
1:56 AM 55.4 °F 51.8 °F 88% 30.36 in 5.0 mi Calm Calm - N/A   Clear
2:17 AM 55.4 °F 51.8 °F 88% 30.37 in 7.0 mi Calm Calm - N/A   Clear
2:36 AM 53.6 °F 51.8 °F 94% 30.37 in 7.0 mi Calm Calm - N/A   Clear
2:56 AM 53.6 °F 51.8 °F 94% 30.37 in 7.0 mi Calm Calm - N/A   Clear
3:36 AM 53.6 °F 50.0 °F 88% 30.36 in 7.0 mi Calm Calm - N/A   Clear
3:56 AM 53.6 °F 50.0 °F 88% 30.37 in 7.0 mi Calm Calm - N/A   Clear
4:17 AM 53.6 °F 50.0 °F 88% 30.37 in 7.0 mi Calm Calm - N/A   Clear
4:36 AM 51.8 °F 50.0 °F 94% 30.38 in 7.0 mi Calm Calm - N/A   Clear
4:56 AM 51.8 °F 50.0 °F 94% 30.38 in 5.0 mi Calm Calm - N/A   Clear
5:17 AM 51.8 °F 48.2 °F 88% 30.38 in 7.0 mi Calm Calm - N/A   Clear
5:36 AM 51.8 °F 48.2 °F 88% 30.38 in 7.0 mi Calm Calm - N/A   Clear
5:57 AM 53.6 °F 50.0 °F 88% 30.39 in 7.0 mi Calm Calm - N/A   Clear
6:16 AM 51.8 °F 50.0 °F 94% 30.39 in 5.0 mi Calm Calm - N/A   Clear
6:37 AM 51.8 °F 50.0 °F 94% 30.39 in 5.0 mi Calm Calm - N/A   Clear
6:56 AM 51.8 °F 48.2 °F 88% 30.40 in 5.0 mi Calm Calm - N/A   Clear
7:16 AM 51.8 °F 48.2 °F 88% 30.40 in 4.0 mi Calm Calm - N/A   Clear
7:37 AM 51.8 °F 48.2 °F 88% 30.40 in 4.0 mi Calm Calm - N/A   Clear
7:56 AM 51.8 °F 48.2 °F 88% 30.41 in 4.0 mi Calm Calm - N/A   Clear
8:37 AM 53.6 °F 50.0 °F 88% 30.42 in 5.0 mi Calm Calm - N/A   Clear
8:56 AM 53.6 °F 50.0 °F 88% 30.43 in 5.0 mi Calm Calm - N/A   Clear
9:16 AM 55.4 °F 51.8 °F 88% 30.43 in 5.0 mi Calm Calm - N/A   Haze
9:37 AM 59.0 °F 53.6 °F 82% 30.43 in 7.0 mi Calm Calm - N/A   Clear
9:56 AM 59.0 °F 53.6 °F 82% 30.44 in 7.0 mi Calm Calm - N/A   Clear
10:16 AM 60.8 °F 55.4 °F 82% 30.44 in 7.0 mi Calm Calm - N/A   Clear
10:36 AM 64.4 °F 53.6 °F 68% 30.44 in 10.0 mi Calm Calm - N/A   Clear
10:56 AM 66.2 °F 53.6 °F 64% 30.44 in 10.0 mi Calm Calm - N/A   Clear
11:17 AM 68.0 °F 53.6 °F 60% 30.44 in 10.0 mi Calm Calm - N/A   Clear
11:36 AM 69.8 °F 53.6 °F 56% 30.44 in 10.0 mi Calm Calm - N/A   Clear
11:57 AM 71.6 °F 53.6 °F 53% 30.44 in 10.0 mi Calm Calm - N/A   Clear
12:17 PM 71.6 °F 53.6 °F 53% 30.43 in 10.0 mi Calm Calm - N/A   Clear
12:36 PM 73.4 °F 51.8 °F 47% 30.44 in 10.0 mi Calm Calm - N/A   Clear
1:16 PM 77.0 °F 50.0 °F 39% 30.43 in 10.0 mi SSE 5.8 mph - N/A   Clear
1:36 PM 77.0 °F 50.0 °F 39% 30.42 in 10.0 mi SSE 5.8 mph - N/A   Clear
2:16 PM 77.0 °F 46.4 °F 34% 30.41 in 10.0 mi South 4.6 mph - N/A   Clear
2:36 PM 78.8 °F 46.4 °F 32% 30.40 in 10.0 mi SSE 8.1 mph - N/A   Clear
2:56 PM 78.8 °F 46.4 °F 32% 30.39 in 10.0 mi South 3.5 mph - N/A   Clear
3:37 PM 78.8 °F 46.4 °F 32% 30.38 in 10.0 mi SSE 5.8 mph - N/A   Clear
3:57 PM 78.8 °F 46.4 °F 32% 30.38 in 10.0 mi SSE 5.8 mph - N/A   Clear
4:16 PM 78.8 °F 46.4 °F 32% 30.38 in 10.0 mi South 4.6 mph - N/A   Clear
4:37 PM 78.8 °F 50.0 °F 36% 30.38 in 10.0 mi SSE 6.9 mph - N/A   Clear
5:16 PM 77.0 °F 50.0 °F 39% 30.38 in 10.0 mi South 8.1 mph - N/A   Clear
5:37 PM 77.0 °F 48.2 °F 36% 30.38 in 10.0 mi South 9.2 mph - N/A   Clear
5:56 PM 77.0 °F 48.2 °F 36% 30.38 in 10.0 mi South 5.8 mph - N/A   Clear
6:16 PM 75.2 °F 46.4 °F 36% 30.38 in 10.0 mi South 4.6 mph - N/A   Clear
6:37 PM 73.4 °F 48.2 °F 41% 30.38 in 10.0 mi South 6.9 mph - N/A   Clear
6:56 PM 71.6 °F 46.4 °F 41% - 10.0 mi South 5.8 mph - N/A   Clear
7:16 PM 69.8 °F 46.4 °F 43% 30.38 in 10.0 mi South 4.6 mph - N/A   Clear
7:36 PM 68.0 °F 48.2 °F 49% 30.39 in 10.0 mi Calm Calm - N/A   Clear
7:56 PM 68.0 °F 48.2 °F 49% 30.39 in 10.0 mi Calm Calm - N/A   Clear
8:16 PM 66.2 °F 48.2 °F 52% 30.39 in 10.0 mi Calm Calm - N/A   Clear
8:36 PM 64.4 °F 48.2 °F 56% 30.39 in 10.0 mi Calm Calm - N/A   Clear
8:57 PM 64.4 °F 50.0 °F 59% 30.40 in 10.0 mi Calm Calm - N/A   Clear
9:16 PM 62.6 °F 50.0 °F 63% 30.40 in 10.0 mi Calm Calm - N/A   Clear
9:36 PM 62.6 °F 50.0 °F 63% 30.40 in 10.0 mi ESE 3.5 mph - N/A   Clear
9:57 PM 62.6 °F 50.0 °F 63% 30.40 in 10.0 mi Calm Calm - N/A   Clear
10:16 PM 60.8 °F 50.0 °F 68% 30.40 in 10.0 mi Calm Calm - N/A   Clear
10:36 PM 60.8 °F 50.0 °F 68% 30.40 in 10.0 mi Calm Calm - N/A   Clear
10:57 PM 60.8 °F 50.0 °F 68% 30.40 in 10.0 mi Calm Calm - N/A   Clear
11:16 PM 60.8 °F 50.0 °F 68% 30.41 in 10.0 mi Calm Calm - N/A   Clear
11:36 PM 59.0 °F 51.8 °F 77% 30.41 in 10.0 mi Calm Calm - N/A   Clear
11:57 PM 59.0 °F 51.8 °F 77% 30.40 in 10.0 mi Calm Calm - N/A   Clear